Regional Weather Roundup
Issued by NWS Sioux Falls, SD

Home | Current Version | Previous Version | Text Only | Print | Product List | Glossary Off
Versions: 1 2 3 4 5 6 7 8 9 10 11 12 13 14 15 16 17 18 19 20 21 22 23 24 25 26 27 28 29 30 31 32 33 34 35 36 37 38 39 40 41 42 43 44 45 46 47 48 49 50

000
ASUS43 KFSD 300210
RWRFSD

WEATHER ROUNDUP FOR SE SOUTH DAKOTA/SW MINNESOTA/NW IOWA
NATIONAL WEATHER SERVICE SIOUX FALLS SD
900 PM CDT MON JUN 29 2015

NOTE: "FAIR" INDICATES FEW OR NO CLOUDS BELOW 12,000 FEET WITH NO
SIGNIFICANT WEATHER AND OR OBSTRUCTIONS TO VISIBILITY.


SDZ038>040-050-052>070-300300-
SOUTHEAST SOUTH DAKOTA

CITY           SKY/WX    TMP DP  RH WIND       PRES   REMARKS
BROOKINGS      CLEAR     73  63  68 NW5       29.91S
CHAMBERLAIN    MOCLDY    84  59  42 N3        29.92S
HURON          MOCLDY    79  68  69 CALM      29.88S HAZE
MADISON        FAIR      73  66  78 NW5       29.91S
MITCHELL       MOCLDY    80  67  64 SW5       29.90R
SIOUX FALLS    PTCLDY    75  63  66 CALM      29.89S
WINNER         FAIR      84  56  38 N6        29.95S
YANKTON        PTCLDY    79  61  53 CALM      29.89S
$$

MNZ071-072-080-081-089-090-097-098-300300-
SOUTHWEST MINNESOTA

CITY           SKY/WX    TMP DP  RH WIND       PRES   REMARKS
FAIRMONT       CLEAR     72  59  64 W7        29.85R
JACKSON        MOCLDY    72  61  68 W6        29.88R
LUVERNE        PTCLDY    75  63  64 W5        29.89S
MARSHALL       CLEAR     72  63  73 NW7       29.86S
MONTEVIDEO     CLEAR     72  61  68 N6        29.86S
PIPESTONE      CLEAR     73  63  68 NW3       29.90S
REDWOOD FALLS  CLEAR     74  63  68 NW8       29.84R
TRACY          PTCLDY    73  64  73 NW7       29.87S
WINDOM         CLEAR     72  63  73 CALM      29.87S
WORTHINGTON    CLEAR     70  61  73 W7        29.89S
$$

IAZ001>003-012>014-020>022-031-032-NEZ013-014-SDZ071-300300-
NORTHWEST IOWA

CITY           SKY/WX    TMP DP  RH WIND       PRES   REMARKS
CHEROKEE       CLEAR     71  66  85 CALM      29.89R
DENISON        CLEAR     72  66  83 MISG      29.88S
ESTHERVILLE    CLEAR     69  62  78 W7        29.86S HAZE
LE MARS        CLEAR     72  66  83 CALM      29.90S
ORANGE CITY    CLEAR     70  63  78 W3        29.90S
SHELDON        CLEAR     70  66  88 W7        29.88S
SIOUX CITY     CLEAR     73  65  75 CALM      29.90R HAZE
SPENCER        CLEAR     70  63  78 W7        29.88S HAZE
STORM LAKE     CLEAR     70  64  83 W7        29.90S
$$

ABBREVIATIONS USED IN REMARKS
   TC - TEMPERATURE IN CELSIUS
  WCI - WIND CHILL INDEX
   HX - HEAT INDEX
  VSB - VISIBILITY



USA.gov is the U.S. government's official web portal to all federal, state and local government web resources and services.